Location: *
(37.9500°N, 27.3666°E)
Time: 22:15:52
(UTC+00:00)

Cosmos 614 Rocket - Pass Details

Date: 01 June 2022
Orbit: 732 x 764 km, 74.1° (Epoch: 01 July)

Event Time Altitude Azimuth Distance (km) Brightness Sun altitude
Rises 01:04:36 0° 318° (NW) 3,224 7.3 -17.1°
Reaches altitude 10° 01:08:29 10° 289° (WNW) 2,297 6.2 -16.6°
Enters shadow 01:09:43 12° 275° (W) 2,167 6.0 -16.4°
